SL-14 R/B

Satellite information

Favourite Embed

Satellite Type and Status

ROCKET BODYIN ORBIT

Key statistics

Satellite SL-14 R/B at a glance.

Uptime

17216

Days in orbit

Revolutions

≈ 12.0

Per day

Orbit

LEO

Low Earth Orbit

Inclination

82.5

Latest

Satellite identification and parameters

Extended collection of information and parameters for SL-14 R/B.

Object identification

Identified? True

Debris? False

Object name: SL-14 R/B

International designator: 1978-100D

Object number (NORAD): 11087

Object ID (CCSDS): 11087

Country: COMMONWEALTH OF INDEPENDENT STATES (CIS)

Current information (Y/N): Y

RCS size: LARGE

Orbital parameters

Period: 120.297 minutes

Inclination: 82.5474 deg

SMA: 8072.302 km

Apoapsis: 1701.318 km

Periapsis: 1687.015 km

RAAN: 141.6158 deg

Eccentricy: 0.00088592

Argument of periapsis: 321.1194 deg

Mean anomaly: 94.2855 deg

Mean motion: 11.97034528 rev/day

Mean motion (dot): -0.00000003 rev/day2

B* drag term: -0.00014388349 1/REarth

Two-line elements (TLE)

Creation date: Dec. 14, 2025, 3:07 a.m.

Reference frame: TEME

Reference center: EARTH

Epoch: Dec. 13, 2025, 11:31 a.m. UTC

TLE line 0: 0 SL-14 R/B

TLE line 1: 1 11087U 78100D 25347.48009279 -.00000003 00000-0 -14388-3 0 9995

TLE line 2: 2 11087 82.5474 141.6158 0008859 321.1194 94.2855 11.97034528 59542

Live tracking on map

Real-time ground track for satellite SL-14 R/B.

In-orbit conjunctions

A list of the most updated potential collisions computed for object SL-14 R/B.

Target Orbit TCA Probability of collision Miss distance Type
COSMOS 252 DEB LEO 2024-07-31 05:10:59 0.0001561621 408.0 (m) DEBRIS

Associated space launch

Mass model of the Meteor-2 meteorological satellite

SL-14 R/B was lifted into orbit during the mission ‘Tsiklon-3 | Meteor-2-GVM’, on board a Tsiklon-3 space rocket.

The launch took place on Oct. 26, 1978, 7 a.m. from 32/2.

For more information about the launch, click the button.

Launch to space Tsiklon-3 | Meteor-2-GVM
Tsiklon-3 | Meteor-2-GVM

Agency: N/A

Status: Launch Successful

Launch date: Oct. 26, 1978, 7 a.m. UTC

Rocket: Tsiklon-3

Launch pad: 32/2

Location: Plesetsk Cosmodrome, Russian Federation

...

Latest news about this satellite

There are no fresh news available about this satellite. Check back as we update our databases every day.


Newsletter sign-up

Weekly statistics, charts and insights to help you stay on top of the space industry.